Date String (YYYY-MM-DD hh:mm:ss) UTC,Instrument flags,Ambient pressure (hPa),Sample flow (lpm),Bypass flow (lpm),Sample temperature (°C),Ambient temperature (°C),ASC tube jacket temperature (°C),LED temperature (°C),Box temperature (°C),Sample RH (%),Span deviation,Mass concentration (μg/m³),Mass concentration (μg/m³),Mass concentration (μg/m³)
DateTimeUTC,F1_M11,P_M11,Q1_M11,Q2_M11,T1_M11,T2_M11,T3_M11,T4_M11,T5_M11,U1_M11,ZSPAN_M11,X0_M11,X2_M11,X1_M11
2022-02-27 13:00:00,,0831.7,5.01,0.00,22.2,22.8,00.0,31.0,24.0,05.5,0000.0,0007.87,0004.61,0004.29
2022-02-27 13:01:00,,0831.7,5.00,0.00,22.1,22.5,00.0,31.0,24.0,05.5,0000.0,0007.46,0004.27,0003.98
2022-02-27 13:02:00,,0831.6,4.99,0.00,22.1,22.2,00.0,31.0,23.9,05.5,0000.0,0007.37,0004.15,0003.84
2022-02-27 13:03:00,,0831.6,5.00,0.00,22.1,22.0,00.0,31.0,23.8,05.6,0000.0,0006.99,0004.08,0003.79
2022-02-27 13:04:00,,0831.7,5.00,0.00,22.0,21.8,00.0,31.0,23.7,05.6,0000.0,0006.73,0004.05,0003.78
2022-02-27 13:05:00,,0831.7,5.00,0.00,22.0,21.6,00.0,31.0,23.6,05.6,0000.0,0006.74,0004.06,0003.78
2022-02-27 13:06:00,,0831.7,4.99,0.00,22.0,21.5,00.0,31.0,23.6,05.6,0000.0,0006.64,0004.01,0003.74
2022-02-27 13:07:00,,0831.6,5.00,0.00,21.9,21.3,00.0,31.0,23.6,05.6,0000.0,0005.94,0003.96,0003.69
2022-02-27 13:08:00,,0831.6,5.01,0.00,21.9,21.2,00.0,31.0,23.5,05.5,0000.0,0005.62,0003.93,0003.66
2022-02-27 13:09:00,,0831.7,5.00,0.00,21.9,21.1,00.0,30.9,23.5,05.5,0000.0,0005.65,0003.93,0003.66
2022-02-27 13:10:00,,0831.7,5.00,0.00,21.8,21.0,00.0,30.9,23.4,05.6,0000.0,0005.74,0003.97,0003.69
2022-02-27 13:11:00,,0831.7,4.98,0.00,21.8,21.1,00.0,30.9,23.3,05.8,0000.0,0006.05,0004.09,0003.79
2022-02-27 13:12:00,,0831.7,5.01,0.00,21.8,21.7,00.0,30.9,23.5,05.8,0000.0,0006.30,0004.18,0003.87
2022-02-27 13:13:00,,0831.7,5.01,0.00,22.0,22.6,00.0,31.0,23.9,05.7,0000.0,0006.20,0004.17,0003.89
2022-02-27 13:14:00,,0831.7,5.01,0.00,22.1,22.9,00.0,31.0,24.0,05.7,0000.0,0006.55,0004.20,0003.92
2022-02-27 13:15:00,,0831.7,4.98,0.00,22.1,22.5,00.0,31.0,24.0,05.8,0000.0,0007.16,0004.30,0004.00
2022-02-27 13:16:00,,0831.6,4.99,0.00,22.1,22.2,00.0,31.0,23.8,05.7,0000.0,0007.27,0004.35,0004.05
2022-02-27 13:17:00,,0831.7,5.02,0.00,22.0,21.9,00.0,31.0,23.7,05.6,0000.0,0007.28,0004.36,0004.06
2022-02-27 13:18:00,,0831.7,4.99,0.00,22.0,21.7,00.0,31.0,23.6,05.6,0000.0,0007.18,0004.33,0004.06
2022-02-27 13:19:00,,0831.6,5.01,0.00,21.9,21.5,00.0,31.0,23.6,05.6,0000.0,0007.21,0004.34,0004.06
2022-02-27 13:20:00,,0831.6,5.01,0.00,21.9,21.4,00.0,31.0,23.5,05.6,0000.0,0007.28,0004.36,0004.07
2022-02-27 13:21:00,,0831.6,5.00,0.00,21.8,21.2,00.0,31.0,23.4,05.6,0000.0,0007.26,0004.33,0004.03
2022-02-27 13:22:00,,0831.6,5.00,0.00,21.8,21.2,00.0,30.9,23.4,05.5,0000.0,0007.04,0004.22,0003.92
2022-02-27 13:23:00,,0831.6,4.98,0.00,21.8,21.1,00.0,30.9,23.3,05.5,0000.0,0006.81,0004.11,0003.80
2022-02-27 13:24:00,,0831.6,5.00,0.00,21.7,21.0,00.0,30.9,23.2,05.5,0000.0,0006.66,0004.03,0003.71
2022-02-27 13:25:00,,0831.7,5.02,0.00,21.7,21.4,00.0,30.9,23.3,05.5,0000.0,0006.29,0003.92,0003.61
2022-02-27 13:26:00,,0831.6,5.00,0.00,21.9,22.2,00.0,30.9,23.6,05.5,0000.0,0005.41,0003.75,0003.47
2022-02-27 13:27:00,,0831.6,4.99,0.00,22.0,23.0,00.0,31.0,24.0,05.5,0000.0,0005.16,0003.60,0003.34
2022-02-27 13:28:00,,0831.6,5.01,0.00,22.2,23.1,00.0,31.0,24.1,05.4,0000.0,0004.91,0003.50,0003.27
2022-02-27 13:29:00,,0831.6,4.99,0.00,22.1,22.7,00.0,31.0,24.0,05.4,0000.0,0004.79,0003.45,0003.22
2022-02-27 13:30:00,,0831.6,5.00,0.00,22.1,22.3,00.0,31.0,23.8,05.4,0000.0,0004.71,0003.41,0003.17
2022-02-27 13:31:00,,0831.6,5.02,0.00,22.0,22.0,00.0,31.0,23.7,05.4,0000.0,0004.52,0003.34,0003.12
2022-02-27 13:32:00,,0831.6,5.01,0.00,22.0,21.7,00.0,31.0,23.5,05.5,0000.0,0004.42,0003.32,0003.12
2022-02-27 13:33:00,,0831.6,4.98,0.00,21.9,21.4,00.0,31.0,23.3,05.7,0000.0,0004.55,0003.37,0003.18
2022-02-27 13:34:00,,0831.7,5.01,0.00,21.7,21.2,00.0,30.9,23.2,05.7,0000.0,0004.61,0003.41,0003.22
2022-02-27 13:35:00,,0831.6,5.00,0.00,21.7,21.0,00.0,30.9,23.1,05.6,0000.0,0004.56,0003.41,0003.23
2022-02-27 13:36:00,,0831.6,5.00,0.00,21.6,20.8,00.0,30.9,23.0,05.5,0000.0,0004.46,0003.38,0003.21
2022-02-27 13:37:00,,0831.6,5.02,0.00,21.5,20.8,00.0,30.8,23.0,05.5,0000.0,0004.40,0003.36,0003.19
2022-02-27 13:38:00,,0831.6,4.99,0.00,21.6,21.5,00.0,30.8,23.2,05.6,0000.0,0004.34,0003.36,0003.19
2022-02-27 13:39:00,,0831.7,5.01,0.00,21.8,22.5,00.0,30.9,23.6,05.4,0000.0,0004.29,0003.34,0003.16
2022-02-27 13:40:00,,0831.7,4.98,0.00,21.9,22.9,00.0,30.9,23.8,05.4,0000.0,0004.26,0003.31,0003.13
2022-02-27 13:41:00,,0831.6,5.01,0.00,21.9,22.6,00.0,30.9,23.8,05.4,0000.0,0004.14,0003.27,0003.10
2022-02-27 13:42:00,,0831.6,5.00,0.00,21.9,22.3,00.0,30.9,23.7,05.4,0000.0,0004.12,0003.25,0003.05
2022-02-27 13:43:00,,0831.6,5.00,0.00,21.9,21.9,00.0,30.9,23.6,05.5,0000.0,0004.00,0003.18,0002.96
2022-02-27 13:44:00,,0831.6,5.01,0.00,21.9,21.6,00.0,30.9,23.5,05.5,0000.0,0003.71,0003.04,0002.77
2022-02-27 13:45:00,,0831.6,5.01,0.00,21.8,21.4,00.0,30.9,23.4,05.5,0000.0,0003.54,0002.89,0002.61
2022-02-27 13:46:00,,0831.6,4.98,0.00,21.8,21.3,00.0,30.9,23.3,05.4,0000.0,0003.60,0002.80,0002.51
2022-02-27 13:47:00,,0831.7,5.00,0.00,21.7,21.2,00.0,30.9,23.3,05.3,0000.0,0003.48,0002.70,0002.43
2022-02-27 13:48:00,,0831.7,5.00,0.00,21.7,21.1,00.0,30.8,23.3,05.2,0000.0,0003.41,0002.61,0002.34
2022-02-27 13:49:00,,0831.6,5.00,0.00,21.7,21.0,00.0,30.8,23.2,05.2,0000.0,0003.28,0002.47,0002.19
2022-02-27 13:50:00,,0831.7,5.01,0.00,21.6,21.0,00.0,30.8,23.2,05.1,0000.0,0003.15,0002.36,0002.09
2022-02-27 13:51:00,,0831.7,4.99,0.00,21.6,21.1,00.0,30.8,23.2,05.1,0000.0,0003.03,0002.26,0001.99
2022-02-27 13:52:00,,0831.7,5.00,0.00,21.7,21.9,00.0,30.8,23.5,05.0,0000.0,0002.92,0002.15,0001.88
2022-02-27 13:53:00,,0831.6,5.01,0.00,21.9,22.6,00.0,30.8,23.7,04.9,0000.0,0002.82,0002.08,0001.80
2022-02-27 13:54:00,,0831.7,5.00,0.00,22.0,22.6,00.0,30.9,23.9,04.9,0000.0,0002.73,0002.00,0001.71
2022-02-27 13:55:00,,0831.7,5.00,0.00,22.0,22.3,00.0,30.9,23.9,04.9,0000.0,0002.59,0001.88,0001.60
2022-02-27 13:56:00,,0831.7,5.00,0.00,22.0,22.1,00.0,30.9,23.8,04.9,0000.0,0002.36,0001.74,0001.51
2022-02-27 13:57:00,,0831.6,5.01,0.00,22.0,21.9,00.0,30.9,23.7,05.1,0000.0,0002.12,0001.67,0001.45
2022-02-27 13:58:00,,0831.7,4.99,0.00,21.9,21.7,00.0,30.9,23.6,05.1,0000.0,0002.09,0001.64,0001.39
2022-02-27 13:59:00,,0831.7,5.01,0.00,21.9,21.5,00.0,30.9,23.5,05.1,0000.0,0001.97,0001.57,0001.35
